HAZ2707 ZSHC-ZJQH

Flight info

Callsign HAZ2707
Flight time N/A
Altitude 38100
Route ELNEX5E ELNEX A599 PLT W19 NOMAR W18 NLG W23 ZUH R200 BIGRO G221 ANPIM ANPIM9ZA
Aircraft A20N/M-SDE2E3FGHIRWXY/LB1

Departure

Time N/A
Airport Hangzhou Xiaoshan International Airport (ZSHC)

Arrival

Time 2026-05-05 14:17
Airport Qionghai Bo'ao Airport (ZJQH)
Time Latitude Longitude Altitude Speed Heading
2026-05-05 12:19 29.14986 118.88010 34120 ft 415 kts 232°
2026-05-05 12:20 29.11131 118.83181 34121 ft 408 kts 232°
2026-05-05 12:20 29.07309 118.78390 34121 ft 409 kts 231°
2026-05-05 12:21 29.03440 118.73543 34112 ft 419 kts 231°
2026-05-05 12:21 28.99462 118.68572 34100 ft 425 kts 231°
2026-05-05 12:22 28.95458 118.63578 34103 ft 426 kts 232°
2026-05-05 12:22 28.91480 118.58620 34109 ft 426 kts 231°
2026-05-05 12:23 28.88908 118.55416 34109 ft 427 kts 231°
2026-05-05 12:23 28.87220 118.53312 34123 ft 431 kts 231°
2026-05-05 12:24 28.83121 118.48214 34096 ft 440 kts 231°
2026-05-05 12:24 28.78990 118.43085 34193 ft 440 kts 232°
2026-05-05 12:25 28.74846 118.37952 34138 ft 441 kts 232°
2026-05-05 12:25 28.70665 118.32776 34145 ft 443 kts 232°
2026-05-05 12:26 28.66495 118.27615 34152 ft 444 kts 232°
2026-05-05 12:26 28.62333 118.22472 34147 ft 443 kts 232°
2026-05-05 12:27 28.60232 118.19881 33951 ft 439 kts 232°
2026-05-05 12:27 28.58170 118.17338 33305 ft 439 kts 232°
2026-05-05 12:27 28.56111 118.14796 32672 ft 443 kts 232°
2026-05-05 12:27 28.54019 118.12213 32293 ft 450 kts 231°
2026-05-05 12:28 28.51894 118.09593 32117 ft 454 kts 231°
2026-05-05 12:28 28.49749 118.06956 32111 ft 456 kts 231°
2026-05-05 12:28 28.45440 118.01662 32105 ft 457 kts 231°
2026-05-05 12:29 28.41120 117.96369 32106 ft 458 kts 231°
2026-05-05 12:29 28.36689 117.91116 32097 ft 459 kts 230°
2026-05-05 12:30 28.32279 117.85927 32105 ft 459 kts 230°
2026-05-05 12:30 28.27853 117.80718 32101 ft 458 kts 231°
2026-05-05 12:31 28.23440 117.75521 32098 ft 458 kts 231°
2026-05-05 12:31 28.19021 117.70323 32111 ft 458 kts 231°
2026-05-05 12:32 28.14588 117.65114 32094 ft 458 kts 231°
2026-05-05 12:32 28.10176 117.59937 32112 ft 458 kts 231°
2026-05-05 12:33 28.05768 117.54770 32123 ft 457 kts 231°
2026-05-05 12:33 28.01329 117.49573 32117 ft 458 kts 231°
2026-05-05 12:34 27.96907 117.44402 32113 ft 458 kts 231°
2026-05-05 12:34 27.92484 117.39235 32124 ft 458 kts 231°
2026-05-05 12:35 27.88038 117.34047 32131 ft 459 kts 231°
2026-05-05 12:35 27.83622 117.28902 32131 ft 459 kts 231°
2026-05-05 12:36 27.79183 117.23736 32132 ft 457 kts 231°
2026-05-05 12:36 27.74759 117.18594 32131 ft 458 kts 231°
2026-05-05 12:37 27.70323 117.13444 32119 ft 459 kts 231°
2026-05-05 12:37 27.65880 117.08292 32122 ft 458 kts 231°
2026-05-05 12:38 27.61419 117.03127 32123 ft 458 kts 231°
2026-05-05 12:38 27.56979 116.97990 32123 ft 458 kts 231°
2026-05-05 12:39 27.52546 116.92870 32124 ft 459 kts 231°
2026-05-05 12:39 27.48116 116.87706 32122 ft 457 kts 232°
2026-05-05 12:40 27.43704 116.82536 32102 ft 458 kts 232°
2026-05-05 12:40 27.39312 116.77398 32100 ft 456 kts 232°
2026-05-05 12:41 27.34919 116.72267 32097 ft 456 kts 232°
2026-05-05 12:41 27.30501 116.67116 32102 ft 456 kts 232°
2026-05-05 12:42 27.26115 116.62008 32101 ft 457 kts 232°
2026-05-05 12:42 27.21700 116.56874 32099 ft 457 kts 232°
2026-05-05 12:43 27.17349 116.51687 32100 ft 456 kts 233°
2026-05-05 12:43 27.13035 116.46433 32100 ft 456 kts 234°
2026-05-05 12:44 27.08752 116.41238 32110 ft 455 kts 233°
2026-05-05 12:44 27.04439 116.36024 32115 ft 456 kts 234°
2026-05-05 12:45 27.00113 116.30801 32120 ft 456 kts 233°
2026-05-05 12:45 26.95795 116.25600 32121 ft 456 kts 233°
2026-05-05 12:46 26.91493 116.20414 32120 ft 456 kts 233°
2026-05-05 12:46 26.87198 116.15187 32122 ft 455 kts 234°
2026-05-05 12:47 26.82919 116.09974 32120 ft 456 kts 234°
2026-05-05 12:47 26.78603 116.04724 32118 ft 457 kts 234°
2026-05-05 12:48 26.74319 115.99522 32117 ft 456 kts 234°
2026-05-05 12:48 26.70001 115.94286 32116 ft 456 kts 234°
2026-05-05 12:49 26.65709 115.89087 32116 ft 457 kts 234°
2026-05-05 12:49 26.61391 115.83865 32111 ft 457 kts 234°
2026-05-05 12:50 26.57094 115.78671 32114 ft 457 kts 234°
2026-05-05 12:50 26.52773 115.73459 32117 ft 452 kts 234°
2026-05-05 12:51 26.48505 115.68317 32106 ft 451 kts 234°
2026-05-05 12:51 26.44233 115.63172 32108 ft 452 kts 234°
2026-05-05 12:52 26.39981 115.58057 32104 ft 451 kts 234°
2026-05-05 12:52 26.35733 115.52953 32114 ft 450 kts 234°
2026-05-05 12:53 26.31465 115.47833 32113 ft 450 kts 234°
2026-05-05 12:53 26.27197 115.42717 32106 ft 451 kts 234°
2026-05-05 12:54 26.20783 115.35043 32092 ft 451 kts 234°
2026-05-05 12:55 26.16528 115.29954 32084 ft 452 kts 234°
2026-05-05 12:55 26.12229 115.24824 32081 ft 451 kts 234°
2026-05-05 12:56 26.07948 115.19722 32080 ft 452 kts 234°
2026-05-05 12:56 26.03674 115.14632 32079 ft 451 kts 234°
2026-05-05 12:57 25.99395 115.09543 32079 ft 452 kts 234°
2026-05-05 12:57 25.95086 115.04422 32082 ft 452 kts 234°
2026-05-05 12:58 25.90806 114.99343 32090 ft 451 kts 234°
2026-05-05 12:58 25.86426 114.94325 32090 ft 457 kts 230°
2026-05-05 12:59 25.81332 114.90013 32096 ft 468 kts 220°
2026-05-05 12:59 25.75451 114.86685 32094 ft 480 kts 210°
2026-05-05 13:00 25.65704 114.83714 32091 ft 488 kts 200°
2026-05-05 13:01 25.52427 114.80460 32087 ft 487 kts 200°
2026-05-05 13:01 25.45815 114.78827 32088 ft 487 kts 200°
2026-05-05 13:02 25.39218 114.77196 32091 ft 485 kts 200°
2026-05-05 13:02 25.32618 114.75565 32089 ft 485 kts 200°
2026-05-05 13:03 25.26043 114.73940 32088 ft 485 kts 200°
2026-05-05 13:03 25.19431 114.72311 32083 ft 484 kts 200°
2026-05-05 13:04 25.12863 114.70691 32092 ft 484 kts 200°
2026-05-05 13:04 25.06279 114.69070 32103 ft 484 kts 200°
2026-05-05 13:05 24.99705 114.67457 32111 ft 483 kts 200°
2026-05-05 13:05 24.93148 114.65848 32107 ft 483 kts 200°
2026-05-05 13:06 24.86594 114.64239 32099 ft 483 kts 200°
2026-05-05 13:06 24.79994 114.62618 32103 ft 482 kts 200°
2026-05-05 13:07 24.73562 114.60728 32102 ft 478 kts 206°
2026-05-05 13:07 24.67391 114.58121 32101 ft 472 kts 212°
2026-05-05 13:08 24.61575 114.54843 32104 ft 465 kts 217°
2026-05-05 13:08 24.55971 114.51299 32109 ft 466 kts 218°
2026-05-05 13:09 24.50324 114.47729 32121 ft 466 kts 218°
2026-05-05 13:09 24.44715 114.44195 32119 ft 465 kts 218°
2026-05-05 13:10 24.39123 114.40675 32115 ft 466 kts 218°
2026-05-05 13:10 24.33487 114.37141 32114 ft 466 kts 217°
2026-05-05 13:11 24.27841 114.33604 32119 ft 467 kts 217°
2026-05-05 13:11 24.22178 114.30060 32114 ft 468 kts 217°
2026-05-05 13:12 24.16489 114.26503 32126 ft 469 kts 217°
2026-05-05 13:12 24.10851 114.22980 32129 ft 470 kts 217°
2026-05-05 13:13 24.05144 114.19419 32131 ft 470 kts 217°
2026-05-05 13:13 23.99468 114.15878 32128 ft 469 kts 217°
2026-05-05 13:14 23.93811 114.12353 32134 ft 470 kts 217°
2026-05-05 13:14 23.88151 114.08829 32131 ft 470 kts 217°
2026-05-05 13:15 23.82418 114.05264 32126 ft 471 kts 217°
2026-05-05 13:15 23.76761 114.01750 32124 ft 471 kts 217°
2026-05-05 13:16 23.71074 113.98219 32112 ft 470 kts 217°
2026-05-05 13:16 23.65368 113.94682 32111 ft 469 kts 217°
2026-05-05 13:17 23.59691 113.91166 32103 ft 469 kts 217°
2026-05-05 13:17 23.53947 113.87775 32089 ft 473 kts 213°
2026-05-05 13:18 23.47810 113.84955 32090 ft 480 kts 207°
2026-05-05 13:18 23.41394 113.82814 32090 ft 484 kts 203°
2026-05-05 13:19 23.34892 113.80860 32089 ft 485 kts 203°
2026-05-05 13:19 23.28404 113.78912 32082 ft 484 kts 202°
2026-05-05 13:20 23.21903 113.76958 32083 ft 484 kts 203°
2026-05-05 13:20 23.15389 113.74999 32082 ft 484 kts 202°
2026-05-05 13:21 23.08887 113.73045 32081 ft 485 kts 202°
2026-05-05 13:21 23.02382 113.71093 32085 ft 485 kts 202°
2026-05-05 13:22 22.95858 113.69140 32091 ft 484 kts 202°
2026-05-05 13:22 22.89350 113.67192 32090 ft 483 kts 202°
2026-05-05 13:23 22.82898 113.65233 32093 ft 483 kts 203°
2026-05-05 13:23 22.76402 113.63246 32090 ft 484 kts 203°
2026-05-05 13:24 22.69932 113.61272 32093 ft 483 kts 202°
2026-05-05 13:24 22.63428 113.59295 32092 ft 483 kts 202°
2026-05-05 13:25 22.56971 113.57333 32093 ft 483 kts 202°
2026-05-05 13:25 22.50451 113.55347 32088 ft 483 kts 203°
2026-05-05 13:26 22.43978 113.53358 32087 ft 482 kts 202°
2026-05-05 13:26 22.37535 113.51382 32085 ft 482 kts 202°
2026-05-05 13:27 22.31135 113.49262 32078 ft 476 kts 209°
2026-05-05 13:27 22.25492 113.45768 32078 ft 462 kts 224°
2026-05-05 13:28 22.21017 113.40923 32084 ft 450 kts 239°
2026-05-05 13:28 22.17920 113.35197 32083 ft 440 kts 251°
2026-05-05 13:29 22.15618 113.29050 32084 ft 441 kts 252°
2026-05-05 13:29 22.13349 113.23049 32080 ft 431 kts 251°
2026-05-05 13:30 22.10902 113.17142 32077 ft 431 kts 251°
2026-05-05 13:30 22.08466 113.11280 32075 ft 431 kts 250°
2026-05-05 13:31 22.06015 113.05393 32073 ft 432 kts 250°
2026-05-05 13:31 22.03548 112.99468 32067 ft 429 kts 251°
2026-05-05 13:32 22.02403 112.96585 32070 ft 418 kts 252°
2026-05-05 13:32 22.01294 112.93715 32073 ft 414 kts 252°
2026-05-05 13:32 21.99085 112.87992 32075 ft 413 kts 252°
2026-05-05 13:33 21.96876 112.82320 32075 ft 409 kts 252°
2026-05-05 13:33 21.94626 112.76704 32074 ft 408 kts 251°
2026-05-05 13:34 21.92354 112.71085 32076 ft 408 kts 251°
2026-05-05 13:34 21.90102 112.65509 32073 ft 408 kts 251°
2026-05-05 13:35 21.87834 112.59901 32072 ft 408 kts 251°
2026-05-05 13:35 21.85570 112.54301 32069 ft 409 kts 251°
2026-05-05 13:36 21.83335 112.48670 32066 ft 409 kts 252°
2026-05-05 13:36 21.81113 112.43058 32067 ft 409 kts 252°
2026-05-05 13:37 21.78873 112.37415 32063 ft 410 kts 252°
2026-05-05 13:37 21.76626 112.31763 32064 ft 411 kts 251°
2026-05-05 13:38 21.74393 112.26151 32059 ft 411 kts 251°
2026-05-05 13:38 21.72136 112.20493 32062 ft 412 kts 251°
2026-05-05 13:39 21.69888 112.14861 32063 ft 412 kts 251°
2026-05-05 13:39 21.67623 112.09191 32056 ft 412 kts 251°
2026-05-05 13:40 21.65375 112.03570 32062 ft 412 kts 251°
2026-05-05 13:40 21.63109 111.97910 32054 ft 412 kts 251°
2026-05-05 13:41 21.60851 111.92281 32047 ft 412 kts 251°
2026-05-05 13:41 21.58439 111.86700 32047 ft 415 kts 247°
2026-05-05 13:42 21.55463 111.81345 32043 ft 419 kts 241°
2026-05-05 13:42 21.51939 111.76337 32041 ft 423 kts 235°
2026-05-05 13:43 21.48123 111.71521 32040 ft 423 kts 235°
2026-05-05 13:43 21.44314 111.66730 32039 ft 423 kts 235°
2026-05-05 13:44 21.40499 111.61937 32040 ft 423 kts 235°
2026-05-05 13:44 21.36656 111.57111 32040 ft 423 kts 235°
2026-05-05 13:45 21.32838 111.52319 32038 ft 424 kts 235°
2026-05-05 13:45 21.28986 111.47491 32040 ft 425 kts 234°
2026-05-05 13:46 21.25171 111.42712 32043 ft 425 kts 234°
2026-05-05 13:46 21.21319 111.37892 32038 ft 424 kts 234°
2026-05-05 13:47 21.17476 111.33086 32037 ft 424 kts 234°
2026-05-05 13:47 21.13645 111.28302 32037 ft 424 kts 234°
2026-05-05 13:48 21.09794 111.23495 32041 ft 424 kts 234°
2026-05-05 13:48 21.05945 111.18696 32047 ft 424 kts 234°
2026-05-05 13:49 21.02097 111.13899 32048 ft 425 kts 234°
2026-05-05 13:49 20.98246 111.09103 32048 ft 425 kts 234°
2026-05-05 13:50 20.94409 111.04327 32046 ft 426 kts 234°
2026-05-05 13:50 20.90575 110.99522 32044 ft 426 kts 234°
2026-05-05 13:51 20.86730 110.94703 32042 ft 426 kts 234°
2026-05-05 13:51 20.82864 110.89864 32044 ft 426 kts 234°
2026-05-05 13:52 20.79015 110.85049 32041 ft 427 kts 234°
2026-05-05 13:52 20.75172 110.80248 32040 ft 427 kts 234°
2026-05-05 13:53 20.71288 110.75401 32040 ft 427 kts 234°
2026-05-05 13:53 20.67429 110.70586 32038 ft 427 kts 234°
2026-05-05 13:54 20.63576 110.65785 32038 ft 427 kts 234°
2026-05-05 13:54 20.59709 110.60970 32036 ft 427 kts 234°
2026-05-05 13:55 20.55829 110.56142 32033 ft 428 kts 234°
2026-05-05 13:55 20.51804 110.51498 32028 ft 431 kts 229°
2026-05-05 13:56 20.47256 110.47266 32029 ft 435 kts 223°
2026-05-05 13:56 20.42291 110.43494 32029 ft 437 kts 219°
2026-05-05 13:57 20.37271 110.39816 32031 ft 438 kts 219°
2026-05-05 13:57 20.32257 110.36146 32029 ft 437 kts 219°
2026-05-05 13:58 20.29751 110.34313 31841 ft 437 kts 219°
2026-05-05 13:58 20.27258 110.32488 31350 ft 439 kts 219°
2026-05-05 13:58 20.24733 110.30641 30846 ft 439 kts 218°
2026-05-05 13:58 20.22214 110.28799 30348 ft 440 kts 218°
2026-05-05 13:59 20.17177 110.25118 29359 ft 441 kts 218°
2026-05-05 13:59 20.14641 110.23264 28865 ft 442 kts 218°
2026-05-05 14:00 20.09566 110.19560 27880 ft 443 kts 218°
2026-05-05 14:00 20.07015 110.17699 27387 ft 444 kts 218°
2026-05-05 14:00 20.04442 110.15836 26891 ft 446 kts 217°
2026-05-05 14:00 20.01806 110.14106 26405 ft 449 kts 213°
2026-05-05 14:01 19.99032 110.12521 25908 ft 452 kts 210°
2026-05-05 14:01 19.96173 110.11092 25419 ft 454 kts 208°
2026-05-05 14:01 19.93300 110.09699 24925 ft 455 kts 208°
2026-05-05 14:01 19.90422 110.08311 24411 ft 457 kts 208°
2026-05-05 14:02 19.87503 110.06903 23842 ft 458 kts 207°
2026-05-05 14:02 19.84621 110.05513 23290 ft 459 kts 207°
2026-05-05 14:02 19.81715 110.04113 22744 ft 461 kts 207°
2026-05-05 14:02 19.78757 110.02686 22195 ft 463 kts 207°
2026-05-05 14:03 19.75817 110.01269 21661 ft 464 kts 207°
2026-05-05 14:03 19.72865 109.99846 21125 ft 466 kts 207°
2026-05-05 14:03 19.69904 109.98420 20596 ft 468 kts 207°
2026-05-05 14:03 19.66973 109.97008 20068 ft 469 kts 207°
2026-05-05 14:04 19.63977 109.95565 19530 ft 469 kts 207°
2026-05-05 14:04 19.61025 109.94145 18993 ft 462 kts 206°
2026-05-05 14:04 19.58118 109.92748 18464 ft 457 kts 206°
2026-05-05 14:04 19.55203 109.91346 17925 ft 458 kts 206°
2026-05-05 14:05 19.52290 109.89946 17389 ft 459 kts 206°
2026-05-05 14:05 19.49388 109.88553 16856 ft 456 kts 206°
2026-05-05 14:05 19.46518 109.87176 16326 ft 451 kts 206°
2026-05-05 14:05 19.43658 109.85804 15791 ft 447 kts 206°
2026-05-05 14:06 19.40799 109.84535 15242 ft 445 kts 199°
2026-05-05 14:06 19.37741 109.84139 14675 ft 445 kts 178°
2026-05-05 14:06 19.34764 109.84924 14154 ft 445 kts 156°
2026-05-05 14:06 19.32249 109.86803 13761 ft 445 kts 134°
2026-05-05 14:07 19.30586 109.89510 13657 ft 443 kts 112°
2026-05-05 14:07 19.29980 109.92617 13647 ft 421 kts 90°
2026-05-05 14:07 19.30491 109.95562 13630 ft 396 kts 69°
2026-05-05 14:07 19.31467 109.98219 13415 ft 382 kts 72°
2026-05-05 14:08 19.31807 110.00920 13081 ft 366 kts 93°
2026-05-05 14:08 19.31263 110.03458 12756 ft 345 kts 112°
2026-05-05 14:08 19.30318 110.05704 12466 ft 327 kts 115°
2026-05-05 14:08 19.29374 110.07852 12181 ft 310 kts 114°
2026-05-05 14:09 19.28539 110.09887 11917 ft 294 kts 113°
2026-05-05 14:09 19.27791 110.11835 11670 ft 280 kts 112°
2026-05-05 14:09 19.27105 110.13706 11438 ft 267 kts 111°
2026-05-05 14:09 19.26466 110.15496 11138 ft 258 kts 111°
2026-05-05 14:10 19.25841 110.17265 10707 ft 255 kts 110°
2026-05-05 14:10 19.25228 110.19012 10268 ft 253 kts 110°
2026-05-05 14:10 19.24620 110.20746 9831 ft 251 kts 110°
2026-05-05 14:10 19.24015 110.22472 9390 ft 248 kts 110°
2026-05-05 14:11 19.23418 110.24176 8953 ft 246 kts 110°
2026-05-05 14:11 19.22843 110.25870 8523 ft 243 kts 104°
2026-05-05 14:11 19.22775 110.27605 8078 ft 240 kts 73°
2026-05-05 14:11 19.23570 110.29123 7677 ft 233 kts 43°
2026-05-05 14:12 19.24877 110.30101 7243 ft 230 kts 27°
2026-05-05 14:12 19.26288 110.30910 6756 ft 232 kts 31°
2026-05-05 14:12 19.27621 110.31874 6275 ft 231 kts 39°
2026-05-05 14:12 19.28801 110.33007 5757 ft 226 kts 47°
2026-05-05 14:13 19.29706 110.34331 5021 ft 225 kts 75°
2026-05-05 14:13 19.29664 110.35906 4391 ft 217 kts 117°
2026-05-05 14:13 19.28666 110.37026 3831 ft 211 kts 152°
2026-05-05 14:13 19.27361 110.37670 3288 ft 207 kts 156°
2026-05-05 14:14 19.26077 110.38277 2846 ft 199 kts 154°
2026-05-05 14:14 19.24856 110.38911 2479 ft 186 kts 152°
2026-05-05 14:14 19.23727 110.39542 2069 ft 183 kts 150°
2026-05-05 14:14 19.22616 110.40188 1812 ft 182 kts 149°
2026-05-05 14:15 19.21510 110.40843 1531 ft 179 kts 149°
2026-05-05 14:15 19.20454 110.41475 1241 ft 168 kts 149°
2026-05-05 14:15 19.19481 110.42082 930 ft 158 kts 147°
2026-05-05 14:15 19.18555 110.42653 599 ft 150 kts 151°
2026-05-05 14:16 19.17662 110.43160 351 ft 138 kts 150°
2026-05-05 14:16 19.16858 110.43649 227 ft 131 kts 149°
2026-05-05 14:16 19.16062 110.44125 178 ft 131 kts 148°
2026-05-05 14:16 19.15264 110.44604 104 ft 130 kts 149°
2026-05-05 14:17 19.14502 110.45064 54 ft 115 kts 150°
2026-05-05 14:17 19.13906 110.45428 40 ft 85 kts 148°
2026-05-05 14:17 19.13484 110.45680 33 ft 34 kts 149°
2026-05-05 14:17 19.13423 110.45788 32 ft 14 kts 61°
2026-05-05 14:18 19.13476 110.45866 33 ft 10 kts 23°
2026-05-05 14:18 19.13542 110.45838 35 ft 9 kts 329°
2026-05-05 14:18 19.13597 110.45805 37 ft 8 kts 330°
2026-05-05 14:18 19.13650 110.45773 39 ft 8 kts 330°
2026-05-05 14:19 19.13711 110.45737 40 ft 11 kts 331°
2026-05-05 14:19 19.13796 110.45731 40 ft 13 kts 34°
2026-05-05 14:19 19.13869 110.45784 43 ft 13 kts 356°
2026-05-05 14:19 19.13960 110.45744 43 ft 15 kts 330°
2026-05-05 14:20 19.14051 110.45688 43 ft 12 kts 327°
2026-05-05 14:20 19.14094 110.45702 43 ft 7 kts 50°
2026-05-05 14:20 19.14105 110.45719 43 ft 3 kts 68°
2026-05-05 14:20 19.14110 110.45731 43 ft 2 kts 62°
2026-05-05 14:21 19.14113 110.45737 43 ft 0 kts 61°